Regional Weather Roundup
Issued by NWS

Home | Current Version | Previous Version | Graphics & Text | Print | Product List | Glossary On
Versions: 1 2 3 4 5 6 7 8 9 10 11 12 13 14 15 16 17 18 19 20 21 22 23 24 25 26 27 28 29 30 31 32 33 34 35 36 37 38 39 40 41 42 43 44 45 46 47 48 49 50
488
ASUS45 KTFX 241710
RWRMT
MONTANA REGIONAL WEATHER ROUNDUP
NATIONAL WEATHER SERVICE GREAT FALLS MT
1100 AM MDT SAT JUN 24 2017

NOTE: "FAIR" INDICATES FEW OR NO CLOUDS BELOW 12000 FEET WITH NO
SIGNIFICANT WEATHER AND/OR OBSTRUCTIONS TO VISIBILITY.

MTZ001>007-043-241800-
WEST OF THE DIVIDE

CITY           SKY/WX    TMP DP  RH WIND       PRES   REMARKS
KALISPELL      SUNNY     68  47  46 E6        30.28F
MISSOULA       SUNNY     67  42  40 VRB3      30.28F
BUTTE          SUNNY     62  37  39 VRB3      30.36F
MULLAN PASS    SUNNY     62  34  35 VRB3      30.37S
ANACONDA         N/A     63  37  39 CALM      30.34F
DEER LODGE       N/A     64  41  42 CALM      30.36F
EUREKA           N/A     64  43  45 MISG      30.30F
HAMILTON         N/A     64  41  42 NW5       30.30S
$$

MTZ008-052>055-241800-
SOUTHWEST MONTANA

CITY           SKY/WX    TMP DP  RH WIND       PRES   REMARKS
BOZEMAN        SUNNY     65  40  39 NE5       30.34F
DILLON         SUNNY     62  38  40 N6        30.34F
W YELLOWSTONE  SUNNY     63  30  29 E5        30.38F
ENNIS          SUNNY     61  37  41 CALM      30.40S
THREE FORKS      N/A     64  42  44 CALM      30.30F
$$

MTZ009-010-012-014-046-048-049-054-241800-
EAST SLOPES AND CENTRAL MONTANA

CITY           SKY/WX    TMP DP  RH WIND       PRES   REMARKS
CUT BANK       SUNNY     64  39  39 E8        30.34F
GREAT FALLS    SUNNY     67  34  29 VRB5      30.34F
MALMSTROM AFB  SUNNY     65  38  36 CALM      30.34S
HELENA         SUNNY     66  39  37 CALM      30.32F
CHOTEAU          N/A     66  39  37 CALM      30.36S
CONRAD           N/A     66  46  48 E2        30.33F
$$

MTZ011-013-016-021-045-047-050-051-241800-
NORTH CENTRAL MONTANA

CITY           SKY/WX    TMP DP  RH WIND       PRES   REMARKS
HAVRE          SUNNY     69  37  30 N8G16     30.31F
LEWISTOWN      PTSUNNY   64  35  34 MISG      30.35S
N BAR RANCH      N/A     63  30  29 NW10      30.38S
CHINOOK          N/A     64  39  39 W3        30.31F
FORT BENTON      N/A     68  37  32 MISG      30.35S
$$

MTZ017>020-022>027-061-062-241800-
NORTHEAST MONTANA

CITY           SKY/WX    TMP DP  RH WIND       PRES   REMARKS
GLASGOW        SUNNY     66  35  31 VRB6      30.30F
JORDAN           N/A     68  31  25 VRB3G24   30.30S
SIDNEY         MOSUNNY   63  34  33 N22G28    30.29S
WOLF POINT     SUNNY     67  35  30 N6G23     30.30F
MALTA          MOSUNNY   66  36  32 VRB5      30.30S
PLENTYWOOD       N/A     57  36  44 NW15G25   30.28F
POPLAR           N/A     63  36  36 NW13G22   30.30F
$$

MTZ028>42-056>058-241800-
SOUTHCENTRAL AND SOUTHEAST MONTANA

CITY           SKY/WX    TMP DP  RH WIND       PRES   REMARKS
BAKER          SUNNY     63  33  32 NW20G29   30.30S
BILLINGS       MOSUNNY   67  34  29 NW6       30.34S
LIVINGSTON     SUNNY     65  38  36 NE7       30.34F
MILES CITY     SUNNY     70  33  25 N12       30.29S
BIG TIMBER     SUNNY     64  39  39 NE7       30.38S
FORSYTH          N/A     70  34  26 NW8       30.29S
ROUNDUP          N/A     67  30  25 W12       30.21F
$$

REGIONAL REPORTS...DAKOTAS

CITY           SKY/WX    TMP DP  RH WIND       PRES   REMARKS
WILLISTON      MOSUNNY   62  35  36 N23G30    30.29R
MINOT          CLOUDY    55  43  63 NW22G28   30.20R
DICKINSON      SUNNY     59  30  33 N26G37    30.24R
BEACH            N/A     59  32  36 N20       30.32S
CROSBY           N/A     57  37  47 N22G31    30.27S
TIOGA            N/A     55  37  50 NW25      30.27R
WATFORD CITY     N/A     57  37  47 N18G36    30.26S
BISMARCK       MOSUNNY   59  38  45 NW18G30   30.20S
GRAND FORKS    LGT RAIN  55  49  80 NW15G25   30.02R
FARGO          CLOUDY    57  46  66 NW14      30.04R
BUFFALO SD       N/A     65  36  34 N20       30.21S
RAPID CITY     SUNNY     70  32  24 N23G32    30.27S
$$

REGIONAL REPORTS...WYOMING/IDAHO/WASHINGTON

CITY           SKY/WX    TMP DP  RH WIND       PRES   REMARKS
GILLETTE       MOSUNNY   65  34  31 N12G21    30.34R
SHERIDAN       SUNNY     69  37  30 N10G18    30.34S
BUFFALO WY     SUNNY     64  36  35 N15G25    30.37R
CODY           SUNNY     62  33  33 VRB5      30.38S
YELLOWSTONE LA   N/A     55  33  43 CALM      30.45S
IDAHO FALLS    SUNNY     67  41  38 VRB3      30.29S
SALMON         SUNNY     64  37  36 CALM      30.27F
BOISE          SUNNY     72  42  34 VRB5      30.20S
SPOKANE        SUNNY     71  44  37 NE8       30.24F
$$

REGIONAL REPORTS...ALBERTA

CITY           SKY/WX    TMP DP  RH WIND       PRES   REMARKS
EDMONTON       SUNNY     66  50  55 NW9       30.27F
CALGARY        PTSUNNY   63  41  45 N12       30.35S
LETHBRIDGE     MOSUNNY   66  43  42 VRB3      30.33S
MEDICINE HAT   PTSUNNY   66  43  42 SW5       30.31S
WATERTON GATE    N/A     63  45  51 E5          N/A
MILK RIVER       N/A     64  43  45 NE3         N/A
ONEFOUR          N/A     64  37  36 N8          N/A
$$

REGIONAL REPORTS...SASKATCHEWAN

CITY           SKY/WX    TMP DP  RH WIND       PRES   REMARKS
SWIFT CURRENT  SUNNY     63  41  45 W7        30.28F
REGINA         MOSUNNY   59  41  51 N12G21    30.29S
SASKATOON      MOSUNNY   64  37  36 NW7       30.26F
CYPRESS HILLS    N/A     57  32  38 NW6         N/A
VAL MARIE        N/A     66  37  34 NW8         N/A
ROCKGLEN         N/A     61  32  33 NW12G17     N/A
ASSINIBOIA       N/A     68  43  40 NW10        N/A
$$




USA.gov is the U.S. government's official web portal to all federal, state and local government web resources and services.